Location: *
(45.9500°N, 9.0833°E)
Time: 21:04:23
(UTC+00:00)

Tiros 1 - Pass Details

Date: 24 June 2021
Orbit: 630 x 664 km, 48.4° (Epoch: 05 August)

Event Time Altitude Azimuth Distance (km) Brightness Sun altitude
Rises 12:56:48 0° 289° (WNW) 2,940 10.7 61.0°
Reaches altitude 10° 12:59:08 10° 286° (WNW) 2,034 10.1 60.7°
Maximum altitude 13:03:45 61° 207° (SSW) 734 9.8 60.1°
Drops below altitude 10° 13:08:25 10° 127° (SE) 2,049 9.8 59.4°
Sets 13:10:47 0° 124° (SE) 2,963 10.5 59.1°
